Tulsa Jones, OK

4:26 AM CDT on April 30, 2017 (GMT -0500)
Jones Jr.

Weather History for KRVS - November, 2012

Change the Weather History Date:

Thursday, November 1, 2012

  Actual Average (KTUL) Record (KTUL)
Temperature  
Mean Temperature 60 °F -  
Max Temperature 81 °F 67 °F 85 °F (1916)
Min Temperature 39 °F 46 °F 25 °F (1991)
Degree Days  
Heating Degree Days 5    
Growing Degree Days 10 (Base 50)    
Moisture  
Dew Point 40 °F    
Average Humidity 60    
Maximum Humidity 86    
Minimum Humidity 23    
Precipitation  
Precipitation 0.00 in - - ()
Sea Level Pressure  
Sea Level Pressure 30.00 in    
Wind  
Wind Speed 1 mph (SE)    
Max Wind Speed 8 mph    
Max Gust Speed -    
Visibility 10 miles    
Events      
Averages and records for this station are not official NWS values.
T = Trace of Precipitation, MM = Missing Value Source: NWS Daily Summary

Daily Weather History Graph

Daily Weather History Graph

Search for Another Location

Airport or City:

Trip Planner

Search our weather history database for the weather conditions in past years. The results will help you decide how hot, cold, wet, or windy it might be!

Date:

Astronomy

Nov. 01, 2012 Rise Set
Actual Time 7:47 AM CDT 6:27 PM CDT
Civil Twilight 7:20 AM CDT 6:54 PM CDT
Nautical Twilight 6:50 AM CDT 7:24 PM CDT
Astronomical Twilight 6:20 AM CDT 7:54 PM CDT
Moon 8:29 PM CDT (11/1) 10:16 AM CDT (11/1)
Length of Visible Light 11h 33m
Length of Day
10h 40m
Waning Gibbous, 93% of the Moon is Illuminated
Nov 1
Waning Gibbous
Nov 6
Last Quarter
Nov 13
New
Nov 20
First Quarter
Nov 28
Full

Hourly Weather History & Observations

Time (CDT) Temp. Dew Point Humidity Pressure Visibility Wind Dir Wind Speed Gust Speed Precip Events Conditions
12:53 AM 44.1 °F 37.0 °F 76% 30.05 in 10.0 mi Calm Calm - N/A   Clear
1:53 AM 43.0 °F 37.9 °F 82% 30.05 in 10.0 mi Calm Calm - N/A   Clear
2:53 AM 42.1 °F 37.0 °F 82% 30.06 in 10.0 mi Calm Calm - N/A   Clear
3:53 AM 42.1 °F 37.9 °F 85% 30.06 in 10.0 mi Calm Calm - N/A   Clear
4:53 AM 41.0 °F 36.0 °F 82% 30.06 in 10.0 mi Calm Calm - N/A   Clear
5:53 AM 39.9 °F 36.0 °F 86% 30.05 in 10.0 mi Calm Calm - N/A   Clear
6:53 AM 39.9 °F 36.0 °F 86% 30.06 in 10.0 mi Calm Calm - N/A   Clear
7:53 AM 39.9 °F 36.0 °F 86% 30.05 in 9.0 mi Calm Calm - N/A   Clear
8:53 AM 46.0 °F 39.0 °F 76% 30.05 in 10.0 mi Calm Calm - N/A   Clear
9:53 AM 55.9 °F 39.9 °F 55% 30.04 in 10.0 mi Calm Calm - N/A   Clear
10:53 AM 64.0 °F 37.9 °F 38% 30.05 in 10.0 mi SSE 4.6 mph - N/A   Clear
11:53 AM 71.1 °F 36.0 °F 28% 30.03 in 10.0 mi South 8.1 mph - N/A   Clear
1:53 PM 78.1 °F 37.9 °F 24% 29.97 in 10.0 mi SSW 4.6 mph - N/A   Clear
2:53 PM 80.1 °F 39.0 °F 23% 29.95 in 10.0 mi Calm Calm - N/A   Clear
3:53 PM 80.1 °F 39.0 °F 23% 29.94 in 10.0 mi East 4.6 mph - N/A   Clear
4:53 PM 81.0 °F 39.9 °F 23% 29.94 in 10.0 mi NE 4.6 mph - N/A   Clear
5:53 PM 75.0 °F 42.1 °F 31% 29.94 in 10.0 mi Calm Calm - N/A   Clear
6:53 PM 64.9 °F 44.1 °F 47% 29.94 in 10.0 mi Calm Calm - N/A   Clear
7:53 PM 60.1 °F 44.1 °F 55% 29.94 in 10.0 mi Calm Calm - N/A   Clear
8:53 PM 55.0 °F 45.0 °F 69% 29.94 in 9.0 mi Calm Calm - N/A   Clear
9:53 PM 53.1 °F 45.0 °F 74% 29.94 in 10.0 mi Calm Calm - N/A   Clear
10:53 PM 51.1 °F 44.1 °F 77% 29.97 in 10.0 mi Calm Calm - N/A   Clear
11:53 PM 50.0 °F 44.1 °F 80% 29.96 in 10.0 mi Calm Calm - N/A   Clear